[[{"header":{"parameterUnit":"m.s-1","parameterCategory":2,"la1":30.2991,"la2":30.254,"lo1":-89.0895,"lo2":-89.0444,"dy":0.0017,"dx":0.0017,"nx":28,"ny":28,"refTime":"2025-01-15T09:00:00:Z","depth":"0","parameterNumber":2,"parameterNumberName":"U-component_of_CURRENTS"},"data":[0,0,0,0,0,0,0,0,0,0,0,0,0,0,0,0,0,0,0,0,0,0,0,0,0,0,0,0,0,0,0,0,0,0,0,0,0,0,0,0,0,0,0,0,0,0,0,0,0,0,0,0,0,0,0,0,0,0,0.238,0.2379,0,0.2212,0.2209,0.2206,0.2083,0.2083,0.2083,0.2083,0.1716,0.1707,0.1697,0,0,0,0,0,0,0,0,0,0,0,0,0,0.2393,0.2394,0.238,0.2379,0.2378,0.2212,0.2209,0.2205,0.2083,0.2083,0.2083,0.2083,0.1719,0.1708,0.1696,0,0,0,0,0,0,0,0,0,0,0,0,0,0.2311,0.2394,0.238,0.2306,0.2299,0.2213,0.2208,0.2204,0.2083,0.2083,0.2083,0.2083,0.1723,0.1709,0.1694,0.16,0,0,0.1649,0.1643,0,0,0,0,0,0,0,0,0.2316,0.2309,0.2318,0.2311,0.2303,0.2179,0.2079,0.1996,0.2083,0.2151,0.2083,0.2083,0.1861,0.1835,0.1788,0.1583,0.1567,0.1648,0.1639,0.1632,0.1628,0,0,0,0,0,0,0,0.2322,0.2314,0.23,0.2317,0.2308,0.2213,0.2202,0.2062,0.1994,0.2145,0.2139,0.2141,0.1853,0.1802,0.1778,0.1561,0.1648,0.1635,0.1626,0.162,0.132,0.1321,0,0,0,0,0,0,0.2379,0.2321,0.2306,0.2297,0.2324,0.2215,0.2202,0.2209,0.1999,0.1973,0.2141,0.2136,0.1827,0.1795,0.1764,0.1686,0.1633,0.1619,0.161,0.1319,0.132,0.1321,0,0,0,0,0,0,0.238,0.2379,0.2313,0.2314,0.2301,0.2217,0.2224,0.2205,0.2171,0.2,0.1967,0.213,0.1826,0.1785,0.1674,0.1669,0.1612,0.1599,0.1318,0.132,0.1321,0.1498,0,0,0,0,0,0,0.2381,0.238,0.2384,0.2319,0.2304,0.2281,0.2225,0.2203,0.2177,0.2169,0.1979,0.1945,0.1823,0.1697,0.1659,0.1647,0.1587,0.1317,0.1319,0.132,0.1491,0.1505,0.1517,0,0,0,0,0,0.2382,0.2384,0.2386,0.2383,0.2319,0.2283,0.2264,0.2195,0.2178,0.2163,0.2055,0.1952,0.1681,0.1686,0.1641,0.1625,0.1316,0.1318,0.132,0.1485,0.1502,0.1517,0,0,0,0,0,0,0.2364,0.2372,0.2371,0.237,0.2347,0.2268,0.2239,0.2215,0.2118,0.2101,0.1951,0.1908,0.1814,0.1701,0.1711,0.1548,0.1485,0.1478,0.1625,0.164,0.1653,0.1682,0.1575,0,0,0,0,0,0.2379,0.2392,0.2381,0.2375,0.2375,0.2318,0.2291,0.2259,0.218,0.2138,0.2024,0.1895,0.1782,0.1703,0.1585,0.148,0.1435,0.1446,0.1459,0.1471,0.1467,0.1421,0.143,0.1328,0.1328,0.1328,0,0,0.236,0.2374,0.2372,0.2375,0.2343,0.2328,0.2298,0.2272,0.2247,0.2108,0.2025,0.1935,0.1771,0.1672,0.1617,0.1575,0.1488,0.1474,0.1485,0.1474,0.1424,0.1434,0.1443,0.1329,0.1329,0.1329,0,0,0.2343,0.2361,0.2369,0.2367,0.2364,0.2333,0.2347,0.2298,0.2265,0.2195,0.2102,0.203,0.1836,0.174,0.1658,0.1669,0.1574,0.1629,0.1691,0.1648,0.1656,0.1662,0.1679,0.1685,0.162,0.162,0.162,0,0.2316,0.2341,0.2358,0.237,0.2363,0.2352,0.2346,0.231,0.2231,0.2204,0.2188,0.1983,0.1865,0.1747,0.1766,0.1696,0.168,0.1647,0.1668,0.1673,0.1676,0.1691,0.1696,0.1629,0.1628,0.1627,0.1626,0,0.2313,0.2328,0.2332,0.2354,0.2348,0.234,0.233,0.2314,0.2292,0.2253,0.2178,0.2058,0.1936,0.1902,0.1827,0.1789,0.1779,0.171,0.1637,0.1698,0.1709,0.1711,0.1641,0.1638,0.1636,0.1633,0,0,0.2246,0.2317,0.2311,0.2329,0.2345,0.2334,0.2324,0.23,0.2285,0.2239,0.2206,0.208,0.2058,0.197,0.189,0.186,0.1907,0.1812,0.1805,0.1847,0.1867,0.1939,0.1948,0.1848,0.1848,0.1848,0.1888,0,0.2226,0.2259,0.2294,0.2293,0.2307,0.2317,0.2305,0.2287,0.2266,0.2234,0.2169,0.2095,0.2068,0.2024,0.2002,0.1911,0.191,0.1906,0.1783,0.178,0.1851,0.195,0.199,0.2035,0.1889,0.189,0.189,0,0.2202,0.2234,0.2248,0.229,0.2294,0.2287,0.2281,0.2271,0.2244,0.223,0.2195,0.2146,0.2102,0.2069,0.2002,0.2006,0.1963,0.1915,0.1913,0.1909,0.1854,0.1934,0.2043,0.2021,0.1891,0.1891,0.1891,0,0.2151,0.2193,0.2208,0.2219,0.226,0.2259,0.2267,0.2257,0.2247,0.2228,0.2219,0.2174,0.2133,0.209,0.2036,0.2013,0.1979,0.1913,0.1948,0.1953,0.1925,0.1929,0.2004,0.1877,0.1876,0.1876,0.1876,0,0.2119,0.2123,0.2186,0.2192,0.2195,0.2234,0.2223,0.2232,0.2231,0.2215,0.2214,0.2192,0.2135,0.2111,0.2066,0.2051,0.2005,0.1994,0.1969,0.1996,0.2005,0.1928,0.1931,0.1878,0.1878,0.1877,0.1877,0,0.2054,0.2099,0.212,0.2167,0.2177,0.2174,0.2203,0.2195,0.2214,0.2198,0.2195,0.2198,0.2196,0.217,0.2096,0.2085,0.2047,0.2042,0.2125,0.2111,0.2139,0.2151,0.2129,0.2081,0.2106,0.2108,0.2109,0,0.2025,0.2035,0.2088,0.2095,0.2112,0.2123,0.2128,0.2167,0.2168,0.2193,0.2181,0.2199,0.2199,0.2195,0.2199,0.2197,0.2111,0.2216,0.217,0.2191,0.2182,0.21,0.2052,0.2221,0.2223,0.2225,0.2227,0,0.1967,0.1989,0.2012,0.2037,0.2047,0.2057,0.2076,0.2084,0.2127,0.2136,0.2155,0.2165,0.2218,0.2252,0.2292,0.2286,0.2218,0.2259,0.2224,0.2262,0.2228,0.2153,0.2182,0.2245,0.2243,0.2242,0.2241,0.224,0.1912,0.1917,0.1958,0.1976,0.1988,0.1996,0.1998,0.2025,0.2044,0.2038,0.2096,0.2072,0.2193,0.2277,0.2349,0.2444,0.2332,0.2383,0.2396,0.2308,0.2269,0.2394,0.2455,0.2454,0.2454,0.2453,0.2453,0,0.1842,0.187,0.1893,0.1919,0.1919,0.1943,0.1963,0.1959,0.1974,0.1945,0.1955,0.1989,0.2115,0.2249,0.2447,0.2528,0.246,0.2516,0.2389,0.2328,0.2399,0.2411,0.2533,0.2533,0.2534,0.2534,0.2534,0.2534,0.1806,0.1816,0.185,0.1851,0.1863,0.1845,0.1853,0.1849,0.1833,0.1766,0.1718,0.1726,0.1973,0.233,0.2551,0.2579,0.2466,0.2501,0.2401,0.2463,0.2448,0.2435,0.2444,0.2571,0.2572,0.2256,0.2254,0.2253]},{"header":{"parameterUnit":"m.s-1","parameterCategory":2,"la1":30.2991,"la2":30.254,"lo1":-89.0895,"lo2":-89.0444,"dy":0.0017,"dx":0.0017,"nx":28,"ny":28,"refTime":"2025-01-15T09:00:00:Z","depth":"0","parameterNumber":3,"parameterNumberName":"V-component_of_CURRENTS"},"data":[0,0,0,0,0,0,0,0,0,0,0,0,0,0,0,0,0,0,0,0,0,0,0,0,0,0,0,0,0,0,0,0,0,0,0,0,0,0,0,0,0,0,0,0,0,0,0,0,0,0,0,0,0,0,0,0,0,0,-0.239,-0.2389,0,-0.2237,-0.2234,-0.2232,-0.2098,-0.2098,-0.2097,-0.2096,-0.1898,-0.1894,-0.1889,0,0,0,0,0,0,0,0,0,0,0,0,0,-0.2445,-0.2444,-0.239,-0.2389,-0.2387,-0.2237,-0.2234,-0.2231,-0.2099,-0.2098,-0.2097,-0.2096,-0.1899,-0.1894,-0.1889,0,0,0,0,0,0,0,0,0,0,0,0,0,-0.2362,-0.2444,-0.239,-0.2309,-0.2301,-0.2238,-0.2234,-0.2231,-0.2099,-0.2098,-0.2097,-0.2095,-0.1901,-0.1895,-0.1888,-0.1869,0,0,-0.1867,-0.1864,0,0,0,0,0,0,0,0,-0.2367,-0.2359,-0.2322,-0.2315,-0.2306,-0.2193,-0.2181,-0.211,-0.2099,-0.2167,-0.2096,-0.2095,-0.1999,-0.1984,-0.1946,-0.1859,-0.1851,-0.1866,-0.1862,-0.1859,-0.1857,0,0,0,0,0,0,0,-0.2373,-0.2364,-0.2321,-0.2321,-0.2311,-0.2239,-0.2226,-0.2166,-0.2084,-0.2161,-0.2153,-0.2149,-0.1992,-0.1953,-0.1941,-0.1848,-0.1867,-0.186,-0.1856,-0.1854,-0.1736,-0.1737,0,0,0,0,0,0,-0.2416,-0.2371,-0.2326,-0.2317,-0.2343,-0.2241,-0.2226,-0.2223,-0.2085,-0.2066,-0.2151,-0.2144,-0.1965,-0.1949,-0.1933,-0.1895,-0.1859,-0.1853,-0.1849,-0.1735,-0.1736,-0.1737,0,0,0,0,0,0,-0.2418,-0.2414,-0.2332,-0.2346,-0.2332,-0.2243,-0.224,-0.2221,-0.2195,-0.2079,-0.2057,-0.2147,-0.1964,-0.1943,-0.1877,-0.1887,-0.185,-0.1844,-0.1734,-0.1735,-0.1737,-0.1824,0,0,0,0,0,0,-0.242,-0.2415,-0.2426,-0.235,-0.2333,-0.231,-0.2241,-0.2219,-0.2198,-0.2188,-0.2069,-0.2048,-0.1961,-0.1888,-0.187,-0.1877,-0.1838,-0.1733,-0.1734,-0.1736,-0.182,-0.1828,-0.1836,0,0,0,0,0,-0.2423,-0.244,-0.2428,-0.2422,-0.2352,-0.2312,-0.2296,-0.2222,-0.22,-0.2193,-0.2105,-0.2052,-0.1888,-0.1883,-0.1862,-0.1867,-0.1732,-0.1734,-0.1736,-0.1817,-0.1827,-0.1835,0,0,0,0,0,0,-0.2467,-0.2427,-0.2411,-0.2416,-0.238,-0.2293,-0.2284,-0.2247,-0.2172,-0.2158,-0.2053,-0.2025,-0.1971,-0.1918,-0.1916,-0.1842,-0.1807,-0.1805,-0.1875,-0.1884,-0.1892,-0.191,-0.1832,0,0,0,0,0,-0.249,-0.2495,-0.2445,-0.2454,-0.2443,-0.2374,-0.2351,-0.2304,-0.2234,-0.22,-0.2122,-0.2039,-0.1964,-0.1925,-0.1851,-0.1813,-0.178,-0.1809,-0.1816,-0.1823,-0.1827,-0.1785,-0.179,-0.1744,-0.1744,-0.1744,0,0,-0.251,-0.2494,-0.2493,-0.2465,-0.2429,-0.2402,-0.2355,-0.233,-0.2298,-0.2192,-0.213,-0.2063,-0.1961,-0.1901,-0.1876,-0.1858,-0.1824,-0.1826,-0.1832,-0.1832,-0.1788,-0.1792,-0.1796,-0.1746,-0.1746,-0.1745,0,0,-0.2546,-0.2542,-0.2549,-0.2523,-0.2489,-0.2442,-0.2451,-0.238,-0.234,-0.2285,-0.2196,-0.214,-0.2036,-0.1956,-0.1904,-0.1921,-0.1867,-0.1912,-0.1959,-0.192,-0.1923,-0.1925,-0.1913,-0.1914,-0.1916,-0.1916,-0.1916,0,-0.2572,-0.2569,-0.2546,-0.2539,-0.2518,-0.2471,-0.2457,-0.2412,-0.2327,-0.2297,-0.228,-0.2128,-0.2056,-0.1968,-0.1971,-0.1936,-0.1918,-0.1928,-0.193,-0.1931,-0.1932,-0.1919,-0.1918,-0.192,-0.192,-0.1919,-0.1919,0,-0.2596,-0.2591,-0.2597,-0.2569,-0.2547,-0.2532,-0.2476,-0.245,-0.2413,-0.2359,-0.229,-0.2193,-0.2104,-0.2083,-0.2026,-0.1995,-0.1983,-0.1945,-0.1907,-0.1942,-0.1926,-0.1924,-0.1927,-0.1925,-0.1924,-0.1923,0,0,-0.2646,-0.2618,-0.2617,-0.2601,-0.2558,-0.2535,-0.2506,-0.2452,-0.2425,-0.2367,-0.2323,-0.2224,-0.2193,-0.2136,-0.2069,-0.2041,-0.2043,-0.2011,-0.2006,-0.2002,-0.1982,-0.1988,-0.1986,-0.2006,-0.2006,-0.2006,-0.1977,0,-0.2666,-0.2658,-0.2635,-0.2613,-0.2596,-0.255,-0.2521,-0.247,-0.2424,-0.2375,-0.2302,-0.2232,-0.2205,-0.2166,-0.2141,-0.2047,-0.2038,-0.2056,-0.1946,-0.1943,-0.1945,-0.1983,-0.1953,-0.1926,-0.1975,-0.1974,-0.1974,0,-0.268,-0.2672,-0.2658,-0.2617,-0.2608,-0.2587,-0.2532,-0.2498,-0.2429,-0.2395,-0.2341,-0.228,-0.2218,-0.2198,-0.2102,-0.2117,-0.2074,-0.202,-0.2016,-0.1987,-0.1944,-0.1893,-0.1919,-0.1857,-0.197,-0.197,-0.197,0,-0.2699,-0.2678,-0.2668,-0.2653,-0.2607,-0.2593,-0.2565,-0.2504,-0.2465,-0.2407,-0.2374,-0.2303,-0.2246,-0.2191,-0.2102,-0.2102,-0.2004,-0.1978,-0.1949,-0.195,-0.1884,-0.1879,-0.1835,-0.1936,-0.1936,-0.1936,-0.1936,0,-0.2707,-0.2694,-0.2678,-0.2664,-0.2642,-0.2612,-0.2575,-0.254,-0.2485,-0.2431,-0.2389,-0.2331,-0.2242,-0.2171,-0.2114,-0.203,-0.2015,-0.197,-0.1942,-0.1918,-0.1917,-0.1825,-0.1829,-0.1935,-0.1935,-0.1935,-0.1935,0,-0.2704,-0.27,-0.2679,-0.2653,-0.2643,-0.2623,-0.2572,-0.2538,-0.2503,-0.2434,-0.2416,-0.2338,-0.2255,-0.2174,-0.2064,-0.203,-0.1948,-0.1929,-0.1927,-0.19,-0.1835,-0.1846,-0.1849,-0.1889,-0.1906,-0.1905,-0.1905,0,-0.2696,-0.269,-0.2667,-0.2649,-0.2634,-0.2605,-0.2574,-0.254,-0.2501,-0.2426,-0.2387,-0.2308,-0.2232,-0.2104,-0.2028,-0.1948,-0.1933,-0.1884,-0.188,-0.1842,-0.1831,-0.1875,-0.1912,-0.1833,-0.1833,-0.1832,-0.1832,0,-0.2669,-0.2667,-0.2647,-0.2624,-0.2597,-0.2556,-0.2518,-0.25,-0.2451,-0.2403,-0.2335,-0.228,-0.2171,-0.2054,-0.1964,-0.1923,-0.1894,-0.1873,-0.181,-0.1768,-0.1832,-0.1852,-0.1863,-0.1827,-0.1828,-0.1828,-0.1828,-0.1829,-0.2635,-0.2618,-0.2602,-0.2577,-0.255,-0.2507,-0.2461,-0.2427,-0.2374,-0.2259,-0.2265,-0.2087,-0.1985,-0.1857,-0.1883,-0.1798,-0.1872,-0.1737,-0.1754,-0.1802,-0.1844,-0.1876,-0.1821,-0.1822,-0.1822,-0.1823,-0.1823,0,-0.2578,-0.2565,-0.2549,-0.2513,-0.2484,-0.2472,-0.2411,-0.2347,-0.2279,-0.2125,-0.2046,-0.1739,-0.1676,-0.1613,-0.1552,-0.1607,-0.1707,-0.1621,-0.1641,-0.1688,-0.1661,-0.1657,-0.1592,-0.1592,-0.1592,-0.1592,-0.1592,-0.1592,-0.254,-0.2508,-0.2514,-0.2459,-0.2435,-0.2347,-0.2303,-0.2204,-0.2068,-0.176,-0.1475,-0.13,-0.1113,-0.1226,-0.1302,-0.1385,-0.1491,-0.1544,-0.1602,-0.1509,-0.152,-0.153,-0.1523,-0.143,-0.143,-0.1625,-0.1626,-0.1627]}],[{"header":{"parameterUnit":"m.s-1","parameterCategory":2,"la1":30.2991,"la2":30.254,"lo1":-89.0895,"lo2":-89.0444,"dy":0.0017,"dx":0.0017,"nx":28,"ny":28,"refTime":"2025-01-15T09:00:00:Z","depth":"2","parameterNumber":2,"parameterNumberName":"U-component_of_CURRENTS"},"data":[0,0,0,0,0,0,0,0,0,0,0,0,0,0,0,0,0,0,0,0,0,0,0,0,0,0,0,0,0,0,0,0,0,0,0,0,0,0,0,0,0,0,0,0,0,0,0,0,0,0,0,0,0,0,0,0,0,0,0.0987,0.0987,0,0.1015,0.1015,0.1016,0.0996,0.0995,0.0995,0.0994,0.1042,0.1044,0.1046,0,0,0,0,0,0,0,0,0,0,0,0,0,0.0912,0.0914,0.0987,0.0987,0.0988,0.1015,0.1015,0.1016,0.0996,0.0995,0.0994,0.0993,0.1041,0.1043,0.1046,0,0,0,0,0,0,0,0,0,0,0,0,0,0.0942,0.0914,0.0987,0.0982,0.0982,0.1015,0.1015,0.1016,0.0997,0.0995,0.0994,0.0993,0.104,0.1043,0.1046,0.109,0,0,0.1056,0.1057,0,0,0,0,0,0,0,0,0.0941,0.0945,0.0982,0.0982,0.0982,0.1001,0.1007,0.1042,0.0997,0.099,0.0994,0.0992,0.1031,0.1035,0.1042,0.1092,0.1094,0.1056,0.1058,0.1059,0.106,0,0,0,0,0,0,0,0.0939,0.0944,0.0997,0.0983,0.0983,0.0977,0.098,0.1013,0.1017,0.0991,0.099,0.0994,0.1031,0.1039,0.1043,0.1095,0.1056,0.1059,0.106,0.1062,0.1154,0.1155,0,0,0,0,0,0,0.0938,0.0942,0.0997,0.0998,0.0959,0.0979,0.0982,0.0996,0.1017,0.1018,0.0995,0.0993,0.1034,0.104,0.1045,0.1073,0.1059,0.1062,0.1064,0.1153,0.1154,0.1155,0,0,0,0,0,0,0.0937,0.0943,0.0995,0.097,0.0977,0.0982,0.0997,0.0997,0.0997,0.102,0.1021,0.0994,0.1034,0.104,0.1069,0.1076,0.1063,0.1066,0.1153,0.1154,0.1154,0.1147,0,0,0,0,0,0,0.0935,0.0943,0.0954,0.0971,0.0978,0.1015,0.0998,0.0999,0.1003,0.1,0.102,0.1023,0.1033,0.1064,0.1072,0.108,0.1068,0.1152,0.1153,0.1154,0.1146,0.1147,0.1148,0,0,0,0,0,0.0932,0.0955,0.0954,0.0961,0.0993,0.1016,0.1019,0.1017,0.1004,0.1011,0.1019,0.1022,0.1076,0.1068,0.1076,0.1085,0.1151,0.1153,0.1154,0.1146,0.1147,0.1148,0,0,0,0,0,0,0.0934,0.0955,0.0955,0.0985,0.0998,0.1013,0.1023,0.1018,0.1031,0.1026,0.1037,0.1042,0.1067,0.1083,0.1072,0.1115,0.1113,0.1116,0.1103,0.1105,0.1106,0.1103,0.1071,0,0,0,0,0,0.094,0.0959,0.0976,0.1,0.1006,0.1012,0.1021,0.1019,0.1032,0.1035,0.1046,0.1062,0.1084,0.1097,0.1119,0.1151,0.116,0.1161,0.1162,0.1163,0.1167,0.1177,0.1179,0.1159,0.1159,0.1159,0,0,0.0949,0.0963,0.0974,0.1001,0.101,0.1032,0.1014,0.1028,0.1046,0.1042,0.1066,0.1068,0.1093,0.112,0.1133,0.1132,0.1175,0.1165,0.1165,0.1169,0.1179,0.1181,0.1182,0.116,0.116,0.116,0,0,0.0976,0.0987,0.1009,0.1022,0.1037,0.1044,0.1046,0.1057,0.1059,0.1084,0.108,0.1086,0.1123,0.1136,0.1149,0.1175,0.1178,0.1178,0.1184,0.1194,0.1195,0.1197,0.1214,0.1217,0.118,0.118,0.118,0,0.0985,0.1019,0.1019,0.1043,0.106,0.105,0.1077,0.1086,0.1103,0.1113,0.1091,0.1124,0.1134,0.1169,0.1164,0.1177,0.1182,0.1175,0.1194,0.1195,0.1197,0.1215,0.1218,0.118,0.118,0.118,0.118,0,0.1026,0.1054,0.1069,0.1097,0.1112,0.1135,0.1145,0.1159,0.1151,0.1151,0.1168,0.1165,0.1181,0.118,0.1178,0.1196,0.1196,0.119,0.1187,0.1198,0.1217,0.122,0.1179,0.1179,0.1179,0.1179,0,0,0.105,0.1091,0.1097,0.1115,0.1142,0.1157,0.1195,0.1223,0.1236,0.1229,0.1245,0.125,0.1219,0.1232,0.122,0.1218,0.1223,0.1201,0.1201,0.1212,0.1246,0.1294,0.1303,0.1212,0.1213,0.1213,0.1256,0,0.1084,0.1136,0.1151,0.1198,0.1223,0.1235,0.1267,0.1285,0.1285,0.1294,0.128,0.1279,0.125,0.1235,0.1232,0.1224,0.1231,0.1212,0.124,0.1241,0.1277,0.1308,0.1115,0.1141,0.126,0.126,0.1261,0,0.112,0.1151,0.1204,0.1245,0.1256,0.1277,0.1317,0.1343,0.1358,0.135,0.1343,0.132,0.1316,0.1277,0.128,0.1265,0.1257,0.1247,0.1249,0.1299,0.1296,0.1149,0.1143,0.1267,0.1266,0.1266,0.1265,0,0.1125,0.1186,0.1227,0.1244,0.1288,0.1311,0.1331,0.1355,0.1364,0.1373,0.1362,0.1361,0.134,0.1336,0.1313,0.1292,0.1317,0.1293,0.1338,0.1342,0.1188,0.1178,0.1305,0.1304,0.1304,0.1304,0.1304,0,0.1152,0.1183,0.1228,0.1248,0.1282,0.1312,0.1336,0.1356,0.137,0.1364,0.1372,0.1356,0.1346,0.1353,0.1339,0.1362,0.1346,0.1353,0.1361,0.1184,0.1173,0.1288,0.1285,0.1306,0.1306,0.1305,0.1305,0,0.1137,0.118,0.1218,0.1268,0.128,0.1296,0.1321,0.1327,0.1352,0.1346,0.1342,0.1351,0.1365,0.1383,0.1384,0.1397,0.1414,0.1426,0.1232,0.1218,0.1424,0.1421,0.1484,0.1487,0.1488,0.149,0.1491,0,0.1132,0.1154,0.1207,0.1214,0.123,0.1257,0.1263,0.1302,0.1297,0.133,0.1312,0.1346,0.134,0.1404,0.1424,0.1462,0.1464,0.1329,0.1269,0.1444,0.1445,0.1438,0.1433,0.105,0.1047,0.1045,0.1044,0,0.1104,0.1123,0.1143,0.1162,0.1172,0.1181,0.1191,0.1193,0.123,0.1225,0.1225,0.1236,0.1316,0.1267,0.1358,0.135,0.1315,0.1298,0.1504,0.1064,0.1046,0.1044,0.1049,0.1026,0.1028,0.1029,0.103,0.1031,0.1059,0.1058,0.1079,0.1091,0.11,0.1082,0.1059,0.1067,0.1052,0.1026,0.1093,0.1051,0.1108,0.1144,0.118,0.1217,0.1298,0.12,0.12,0.1203,0.1176,0.1165,0.1161,0.1163,0.1165,0.1167,0.1169,0,0.0988,0.0997,0.1002,0.1003,0.0969,0.101,0.0987,0.0931,0.088,0.0887,0.0868,0.072,0.0789,0.0878,0.0905,0.1,0.0942,0.0968,0.0814,0.083,0.0845,0.0795,0.0682,0.0682,0.0681,0.0681,0,0,0.0949,0.093,0.0939,0.0873,0.0869,0.0784,0.0757,0.0683,0.0645,0.0475,0.0429,0.0616,0.0726,0.0631,0.0689,0.0667,0.0736,0.0655,0.1022,0.0843,0.0857,0.0942,0.0881,0,0,0,0,0]},{"header":{"parameterUnit":"m.s-1","parameterCategory":2,"la1":30.2991,"la2":30.254,"lo1":-89.0895,"lo2":-89.0444,"dy":0.0017,"dx":0.0017,"nx":28,"ny":28,"refTime":"2025-01-15T09:00:00:Z","depth":"2","parameterNumber":3,"parameterNumberName":"V-component_of_CURRENTS"},"data":[0,0,0,0,0,0,0,0,0,0,0,0,0,0,0,0,0,0,0,0,0,0,0,0,0,0,0,0,0,0,0,0,0,0,0,0,0,0,0,0,0,0,0,0,0,0,0,0,0,0,0,0,0,0,0,0,0,0,0.0452,0.0451,0,0.0355,0.0355,0.0354,0.0241,0.0239,0.0237,0.0235,0.0176,0.0176,0.0176,0,0,0,0,0,0,0,0,0,0,0,0,0,0.0514,0.0514,0.0452,0.0451,0.0449,0.0356,0.0355,0.0353,0.0241,0.0239,0.0236,0.0234,0.0176,0.0176,0.0176,0,0,0,0,0,0,0,0,0,0,0,0,0,0.0462,0.0514,0.0453,0.038,0.0372,0.0356,0.0354,0.0353,0.0242,0.0239,0.0236,0.0233,0.0176,0.0176,0.0176,0.0238,0,0,0.0178,0.0178,0,0,0,0,0,0,0,0,0.0465,0.046,0.0392,0.0385,0.0376,0.0305,0.0354,0.0316,0.0242,0.0294,0.0235,0.0232,0.0223,0.0219,0.0211,0.0235,0.0233,0.0178,0.0178,0.0178,0.0178,0,0,0,0,0,0,0,0.0469,0.0464,0.0417,0.0391,0.0381,0.0343,0.0333,0.0346,0.0279,0.029,0.028,0.0266,0.0219,0.0211,0.0209,0.0232,0.0178,0.0178,0.0178,0.0178,0.0152,0.0151,0,0,0,0,0,0,0.048,0.0468,0.042,0.0414,0.0411,0.0344,0.0333,0.0333,0.0278,0.0266,0.0269,0.0261,0.0212,0.0209,0.0206,0.0151,0.0178,0.0178,0.0179,0.0153,0.0152,0.0151,0,0,0,0,0,0,0.0482,0.0477,0.0424,0.0435,0.0425,0.0346,0.0347,0.0333,0.0276,0.0261,0.0249,0.0221,0.0209,0.0206,0.0174,0.0153,0.0179,0.0179,0.0154,0.0153,0.0151,0.0122,0,0,0,0,0,0,0.0485,0.0479,0.0471,0.0436,0.0424,0.0401,0.0349,0.0333,0.0273,0.0261,0.0218,0.0211,0.0207,0.0173,0.0174,0.0154,0.0179,0.0155,0.0153,0.0152,0.0124,0.0119,0.0116,0,0,0,0,0,0.0487,0.05,0.0472,0.0465,0.0421,0.0401,0.0392,0.0327,0.0273,0.0262,0.0213,0.021,0.0162,0.0173,0.0174,0.0154,0.0156,0.0154,0.0152,0.0126,0.012,0.0116,0,0,0,0,0,0,0.0523,0.0488,0.0457,0.0456,0.0421,0.038,0.0358,0.0311,0.0263,0.0233,0.0208,0.0201,0.0163,0.0166,0.0179,0.0139,0.0156,0.0154,0.0136,0.0131,0.0127,0.0137,0.018,0,0,0,0,0,0.053,0.0524,0.0484,0.0479,0.046,0.04,0.0374,0.0329,0.0287,0.0258,0.0221,0.0185,0.0167,0.0151,0.0141,0.0132,0.0131,0.0116,0.0112,0.0108,0.0116,0.0088,0.0083,0.0144,0.0144,0.0144,0,0,0.0542,0.052,0.0515,0.0485,0.0447,0.0432,0.0377,0.0333,0.0307,0.0267,0.0209,0.0173,0.0161,0.0135,0.0119,0.0128,0.0089,0.0105,0.0103,0.0113,0.0085,0.008,0.0074,0.0143,0.0143,0.0143,0,0,0.0572,0.0542,0.0544,0.0519,0.0462,0.0432,0.0411,0.0346,0.0298,0.0251,0.0207,0.0155,0.0125,0.0108,0.01,0.0074,0.0068,0.0058,0.0047,0.0019,0.0014,0.001,-0.0003,-0.0008,0.0055,0.0055,0.0055,0,0.0578,0.0585,0.0541,0.0535,0.0514,0.043,0.0425,0.038,0.0306,0.0273,0.0225,0.0139,0.0119,0.0096,0.0068,0.0067,0.0048,0.0066,0.0014,0.001,0.0006,-0.0006,-0.0011,0.0054,0.0054,0.0054,0.0054,0,0.062,0.0608,0.0606,0.0573,0.0547,0.0529,0.0466,0.0418,0.0336,0.028,0.0203,0.0151,0.0096,0.0076,0.0059,0.0018,0.0013,0.0012,0.0028,-0.0002,-0.0013,-0.0018,0.0051,0.0052,0.0052,0.0053,0,0,0.0675,0.0643,0.0636,0.063,0.0564,0.0554,0.0507,0.0454,0.0414,0.0307,0.0256,0.0178,0.0102,0.0087,0.0045,0.0014,-0.0043,-0.0012,-0.0013,-0.002,-0.0107,-0.0039,-0.0038,-0.0068,-0.0069,-0.007,-0.0104,0,0.0713,0.0733,0.0691,0.0689,0.0696,0.0613,0.0587,0.0517,0.0431,0.0361,0.0263,0.019,0.0121,0.0069,0.0021,-0.0023,-0.0058,-0.0033,-0.0079,-0.008,-0.0013,-0.0042,-0.0005,-0.0027,-0.0109,-0.011,-0.0111,0,0.0769,0.0776,0.0791,0.0763,0.0752,0.0716,0.0654,0.0616,0.0503,0.0428,0.0312,0.0225,0.0131,0.0082,-0.0028,-0.0018,-0.0072,-0.0102,-0.0105,-0.003,-0.0021,-0.001,-0.0033,-0.0119,-0.0118,-0.0118,-0.0117,0,0.0864,0.0845,0.0862,0.0853,0.0804,0.0765,0.0714,0.0616,0.058,0.0442,0.0393,0.0256,0.0182,0.0085,-0.0025,-0.004,-0.0116,-0.0134,-0.0115,-0.011,-0.0077,-0.0067,-0.0196,-0.0196,-0.0196,-0.0196,-0.0196,0,0.0949,0.0957,0.0892,0.0905,0.0893,0.0821,0.0778,0.0705,0.0606,0.0562,0.0409,0.0366,0.0173,0.0095,-0.0003,-0.0072,-0.0109,-0.0114,-0.0116,-0.0086,-0.0076,-0.0151,-0.0146,-0.0197,-0.0197,-0.0197,-0.0197,0,0.1051,0.1019,0.1036,0.0975,0.0936,0.0919,0.0809,0.0797,0.0679,0.0618,0.0569,0.0431,0.0326,0.018,0.0044,-0.0023,-0.0099,-0.0108,-0.0053,-0.0046,-0.0082,-0.0078,-0.0097,-0.0095,-0.0093,-0.0091,-0.009,0,0.1109,0.113,0.1084,0.1069,0.1018,0.0965,0.0939,0.0828,0.0806,0.0675,0.0673,0.0543,0.0474,0.0317,0.0177,0.0041,-0.0024,-0.0005,-0.0015,-0.0072,-0.0073,-0.0071,-0.0069,0.0004,0.0006,0.0007,0.0008,0,0.1205,0.1176,0.1186,0.1152,0.1112,0.1095,0.1026,0.1022,0.0906,0.0871,0.0782,0.0711,0.0554,0.0431,0.0275,0.0189,0.0015,0.0028,-0.0064,-0.0008,0.0025,0.0024,0.0022,0.0022,0.0021,0.002,0.0019,0.0019,0.1244,0.1271,0.125,0.1223,0.1191,0.1166,0.117,0.1113,0.1088,0.0928,0.0898,0.0792,0.0647,0.0475,0.031,0.0143,0.0169,0.0089,0.0082,0.0074,0.0111,0.0147,0.0175,0.0174,0.0174,0.0173,0.0173,0,0.1283,0.1285,0.1299,0.1272,0.1275,0.1195,0.12,0.1218,0.1191,0.098,0.0863,0.0818,0.0689,0.0507,0.0304,0.0188,0.0128,0.0111,0.006,0.0053,0.0044,0.0075,0.013,0.0129,0.0128,0.0126,0,0,0.1289,0.133,0.1354,0.1342,0.1287,0.1282,0.1283,0.1263,0.1184,0.1044,0.0914,0.076,0.0702,0.0529,0.0369,0.0229,0.0131,0.0185,0.025,0.02,0.019,0.0088,0.0137,0,0,0,0,0]}],[{"header":{"parameterUnit":"m.s-1","parameterCategory":2,"la1":30.2991,"la2":30.254,"lo1":-89.0895,"lo2":-89.0444,"dy":0.0017,"dx":0.0017,"nx":28,"ny":28,"refTime":"2025-01-15T09:00:00:Z","depth":"4","parameterNumber":2,"parameterNumberName":"U-component_of_CURRENTS"},"data":[0,0,0,0,0,0,0,0,0,0,0,0,0,0,0,0,0,0,0,0,0,0,0,0,0,0,0,0,0,0,0,0,0,0,0,0,0,0,0,0,0,0,0,0,0,0,0,0,0,0,0,0,0,0,0,0,0,0,-0.0043,-0.0043,0,-0.0008,-0.0008,-0.0007,0.0006,0.0006,0.0006,0.0006,0.0055,0.0056,0.0058,0,0,0,0,0,0,0,0,0,0,0,0,0,-0.0102,-0.0101,-0.0043,-0.0043,-0.0042,-0.0008,-0.0008,-0.0007,0.0006,0.0006,0.0006,0.0006,0.0055,0.0056,0.0058,0,0,0,0,0,0,0,0,0,0,0,0,0,-0.0073,-0.01,-0.0043,-0.0031,-0.0029,-0.0008,-0.0008,-0.0007,0.0006,0.0006,0.0006,0.0006,0.0054,0.0056,0.0058,0.0072,0,0,0.0064,0.0065,0,0,0,0,0,0,0,0,-0.0074,-0.0071,-0.0033,-0.0032,-0.003,-0.0005,-0.001,0.002,0.0007,-0.0008,0.0006,0.0006,0.0037,0.004,0.0046,0.0075,0.0077,0.0065,0.0066,0.0067,0.0067,0,0,0,0,0,0,0,-0.0076,-0.0072,-0.003,-0.0033,-0.0031,-0.0028,-0.0024,-0.0005,0.0014,-0.0006,-0.0005,-0.0001,0.0038,0.0044,0.0047,0.0077,0.0064,0.0066,0.0067,0.0068,0.0133,0.0134,0,0,0,0,0,0,-0.0079,-0.0074,-0.0031,-0.0029,-0.0052,-0.0027,-0.0023,-0.0013,0.0014,0.0018,-0.0001,-0.0,0.0041,0.0045,0.0049,0.0091,0.0067,0.0068,0.007,0.0133,0.0133,0.0134,0,0,0,0,0,0,-0.0081,-0.0076,-0.0032,-0.0051,-0.0045,-0.0026,-0.0015,-0.0012,0.0,0.0018,0.0023,0.0009,0.0041,0.0046,0.007,0.0092,0.0069,0.0071,0.0132,0.0133,0.0134,0.016,0,0,0,0,0,0,-0.0082,-0.0076,-0.007,-0.0051,-0.0044,-0.0016,-0.0015,-0.0012,0.0003,0.0004,0.0028,0.0032,0.0041,0.0067,0.0072,0.0095,0.0073,0.0132,0.0133,0.0133,0.0159,0.0162,0.0164,0,0,0,0,0,-0.0085,-0.0075,-0.0069,-0.0064,-0.0035,-0.0016,-0.0012,0.0001,0.0003,0.0011,0.0026,0.0032,0.0076,0.0069,0.0075,0.0099,0.0131,0.0132,0.0133,0.0157,0.0161,0.0164,0,0,0,0,0,0,-0.0096,-0.0072,-0.0066,-0.0048,-0.0032,-0.0013,-0.0005,0.0005,0.0022,0.0024,0.0039,0.0045,0.0066,0.0079,0.007,0.0118,0.0105,0.0107,0.0121,0.0125,0.0128,0.0169,0.0075,0,0,0,0,0,-0.0096,-0.0082,-0.006,-0.0047,-0.0038,-0.002,-0.001,-0.0,0.0017,0.0025,0.0042,0.006,0.0075,0.0097,0.0104,0.0141,0.016,0.016,0.0162,0.0165,0.0202,0.0246,0.0257,0.0138,0.0138,0.0138,0,0,-0.0098,-0.0082,-0.0075,-0.0049,-0.0036,-0.0012,-0.0014,0.0004,0.0027,0.0028,0.0062,0.0063,0.0081,0.0111,0.0125,0.013,0.0199,0.0166,0.0168,0.0205,0.0248,0.026,0.0271,0.0139,0.0138,0.0138,0,0,-0.0095,-0.008,-0.0067,-0.0048,-0.0024,-0.0008,-0.0001,0.0023,0.0037,0.0072,0.0067,0.0083,0.0125,0.0134,0.0148,0.0174,0.0199,0.0181,0.0252,0.0293,0.0304,0.0314,0.0316,0.0326,0.02,0.0201,0.0201,0,-0.0097,-0.007,-0.0061,-0.0038,-0.0012,-0.0003,0.0028,0.0042,0.0071,0.0095,0.0089,0.0145,0.0138,0.0188,0.0198,0.0182,0.0212,0.0236,0.0299,0.0309,0.0319,0.0319,0.033,0.0202,0.0202,0.0202,0.0201,0,-0.0079,-0.0053,-0.0043,-0.0005,0.002,0.0046,0.0074,0.0102,0.0125,0.0144,0.0192,0.0192,0.0242,0.0226,0.0231,0.0297,0.0294,0.0281,0.0294,0.0333,0.0329,0.034,0.0204,0.0203,0.0203,0.0203,0,0,-0.0082,-0.0038,-0.003,0.0001,0.0047,0.0073,0.012,0.0173,0.0218,0.024,0.0301,0.0318,0.0334,0.0351,0.0345,0.0383,0.0439,0.0388,0.0389,0.0397,0.0531,0.0403,0.0402,0.0461,0.0464,0.0467,0.0487,0,-0.0063,-0.0017,0.001,0.0071,0.0102,0.0145,0.0191,0.0237,0.0279,0.033,0.0343,0.039,0.0376,0.0412,0.0449,0.0439,0.0479,0.0435,0.0488,0.0489,0.0377,0.0414,0.0476,0.0495,0.0498,0.0499,0.0501,0,-0.004,-0.001,0.0049,0.0124,0.0145,0.0191,0.0294,0.0336,0.04,0.0432,0.0496,0.051,0.0564,0.054,0.0597,0.0585,0.0585,0.0571,0.0571,0.0464,0.0383,0.0456,0.052,0.0519,0.0517,0.0516,0.0515,0,-0.0039,0.0029,0.0081,0.0106,0.0184,0.0241,0.0297,0.0375,0.0416,0.0512,0.0549,0.0621,0.0642,0.069,0.0652,0.0666,0.068,0.068,0.0562,0.0551,0.0649,0.0638,0.0743,0.0743,0.0743,0.0743,0.0743,0,-0.0017,0.0022,0.0092,0.012,0.0199,0.0261,0.036,0.0417,0.0494,0.0525,0.0609,0.0615,0.0693,0.0692,0.069,0.0635,0.0713,0.0594,0.0563,0.065,0.0641,0.0654,0.0643,0.0744,0.0744,0.0743,0.0743,0,-0.0029,0.0014,0.0072,0.0163,0.0199,0.026,0.0375,0.0432,0.0516,0.0562,0.0598,0.0632,0.0615,0.0638,0.0655,0.0645,0.0621,0.0578,0.064,0.0609,0.0467,0.0458,0.0508,0.0504,0.05,0.0497,0.0495,0,-0.0034,-0.0006,0.0085,0.0122,0.017,0.0269,0.0328,0.0431,0.0477,0.0526,0.0521,0.0531,0.0537,0.0458,0.0483,0.0484,0.0467,0.0504,0.0541,0.0486,0.0452,0.0447,0.0442,0.049,0.0489,0.0488,0.0487,0,-0.0053,-0.002,0.0023,0.0094,0.0166,0.0239,0.0327,0.0356,0.0447,0.051,0.045,0.0439,0.0378,0.0362,0.0353,0.0348,0.0525,0.047,0.0479,0.0514,0.0464,0.0433,0.0432,0.0475,0.0477,0.0478,0.0479,0,-0.0074,-0.0053,0.0002,0.0065,0.0134,0.0185,0.0251,0.0292,0.0342,0.0405,0.0344,0.0318,0.0324,0.028,0.0252,0.0254,0.0278,0.0343,0.0359,0.0372,0.0317,0.0234,0.0167,0,0,0,0,0,-0.0088,-0.007,-0.0029,0.0043,0.0099,0.0137,0.0228,0.0291,0.0368,0.0311,0.0342,0.027,0.0221,0.0186,0.0162,0.0199,0.0288,0.0176,0.0375,0.041,0.0424,0.0369,0,0,0,0,0,0,-0.0097,-0.0063,-0.0048,-0.0007,0.003,0.0096,0.0147,0.0201,0.0189,0.0246,0.0197,0.0251,0.0181,0.0195,0.0138,0.0142,0.0271,0.017,0.0171,0.0403,0.0415,0.0426,0.0374,0,0,0,0,0]},{"header":{"parameterUnit":"m.s-1","parameterCategory":2,"la1":30.2991,"la2":30.254,"lo1":-89.0895,"lo2":-89.0444,"dy":0.0017,"dx":0.0017,"nx":28,"ny":28,"refTime":"2025-01-15T09:00:00:Z","depth":"4","parameterNumber":3,"parameterNumberName":"V-component_of_CURRENTS"},"data":[0,0,0,0,0,0,0,0,0,0,0,0,0,0,0,0,0,0,0,0,0,0,0,0,0,0,0,0,0,0,0,0,0,0,0,0,0,0,0,0,0,0,0,0,0,0,0,0,0,0,0,0,0,0,0,0,0,0,0.0522,0.0522,0,0.0525,0.0525,0.0526,0.0547,0.0548,0.0548,0.0549,0.0564,0.0563,0.0563,0,0,0,0,0,0,0,0,0,0,0,0,0,0.0508,0.0508,0.0522,0.0522,0.0522,0.0525,0.0525,0.0526,0.0547,0.0548,0.0548,0.0549,0.0564,0.0563,0.0563,0,0,0,0,0,0,0,0,0,0,0,0,0,0.0513,0.0508,0.0522,0.0533,0.0534,0.0525,0.0525,0.0526,0.0547,0.0548,0.0548,0.0549,0.0564,0.0564,0.0563,0.0548,0,0,0.0563,0.0563,0,0,0,0,0,0,0,0,0.0513,0.0514,0.0531,0.0532,0.0533,0.0536,0.0526,0.0533,0.0547,0.0542,0.0549,0.055,0.0555,0.0555,0.0555,0.0548,0.0549,0.0563,0.0563,0.0563,0.0563,0,0,0,0,0,0,0,0.0512,0.0513,0.0523,0.0531,0.0532,0.0529,0.0531,0.0527,0.0545,0.0543,0.0544,0.0544,0.0556,0.0555,0.0555,0.0549,0.0563,0.0563,0.0563,0.0563,0.0556,0.0556,0,0,0,0,0,0,0.0512,0.0513,0.0523,0.0523,0.0524,0.0529,0.0531,0.0535,0.0544,0.0546,0.0543,0.0545,0.0554,0.0555,0.0556,0.0569,0.0563,0.0563,0.0563,0.0556,0.0556,0.0556,0,0,0,0,0,0,0.0512,0.0513,0.0523,0.0518,0.0519,0.0528,0.0532,0.0534,0.0542,0.0545,0.0547,0.055,0.0555,0.0556,0.0562,0.0569,0.0563,0.0563,0.0556,0.0556,0.0556,0.0576,0,0,0,0,0,0,0.0511,0.0513,0.052,0.0518,0.0519,0.0523,0.0532,0.0534,0.054,0.0543,0.0551,0.0553,0.0556,0.0563,0.0562,0.0569,0.0563,0.0556,0.0556,0.0556,0.0576,0.0577,0.0578,0,0,0,0,0,0.0511,0.0514,0.052,0.0522,0.0528,0.0523,0.0523,0.0532,0.054,0.0542,0.0551,0.0553,0.0561,0.0562,0.0562,0.0569,0.0557,0.0556,0.0556,0.0575,0.0577,0.0578,0,0,0,0,0,0,0.051,0.0516,0.0524,0.0529,0.0529,0.0527,0.0532,0.0534,0.0541,0.0548,0.0552,0.0554,0.0558,0.0558,0.056,0.0565,0.0558,0.0558,0.0573,0.0574,0.0575,0.0563,0.0563,0,0,0,0,0,0.0513,0.0523,0.0521,0.0528,0.0529,0.0531,0.0533,0.0535,0.0539,0.0544,0.0549,0.0554,0.0554,0.0562,0.0557,0.0564,0.0546,0.0566,0.0567,0.0568,0.0557,0.0538,0.0537,0.0555,0.0555,0.0555,0,0,0.0515,0.0521,0.0526,0.053,0.0534,0.0536,0.0535,0.0537,0.0537,0.0543,0.0552,0.0553,0.0553,0.0559,0.0561,0.0565,0.0555,0.0568,0.0569,0.0556,0.0538,0.0536,0.0534,0.0555,0.0555,0.0555,0,0,0.0523,0.0529,0.054,0.054,0.0545,0.0542,0.0543,0.0543,0.0543,0.0549,0.0549,0.0549,0.0562,0.0556,0.0557,0.0557,0.0553,0.0567,0.0573,0.0556,0.0554,0.0552,0.0533,0.0529,0.0577,0.0577,0.0577,0,0.0529,0.0543,0.0541,0.055,0.0554,0.0547,0.0555,0.0546,0.0548,0.0538,0.0556,0.0549,0.0555,0.0544,0.0557,0.0558,0.0553,0.0573,0.0557,0.0555,0.0553,0.0533,0.0529,0.0578,0.0578,0.0578,0.0578,0,0.0544,0.0556,0.0561,0.0574,0.0573,0.0578,0.0566,0.0563,0.0567,0.0551,0.0539,0.0544,0.0542,0.0547,0.0562,0.055,0.0552,0.0555,0.0556,0.0552,0.0532,0.0527,0.058,0.0579,0.0579,0.0579,0,0,0.0563,0.0572,0.0579,0.0589,0.0588,0.059,0.0583,0.0567,0.0553,0.0549,0.0524,0.0537,0.0532,0.0531,0.054,0.0534,0.0527,0.0553,0.0552,0.0535,0.0495,0.0459,0.045,0.054,0.0539,0.0538,0.0489,0,0.0583,0.0606,0.0604,0.0623,0.063,0.0619,0.0611,0.0588,0.0568,0.0535,0.0512,0.0507,0.0526,0.0546,0.0532,0.0522,0.0515,0.054,0.0498,0.0496,0.0466,0.0442,0.0536,0.0485,0.0484,0.0483,0.0482,0,0.0607,0.0617,0.0644,0.0645,0.0648,0.0661,0.0645,0.0635,0.0571,0.0551,0.052,0.0502,0.0486,0.051,0.0478,0.0502,0.0502,0.0493,0.0491,0.0442,0.045,0.0487,0.0473,0.0474,0.0474,0.0475,0.0476,0,0.0628,0.0647,0.0674,0.0677,0.0674,0.0689,0.0692,0.0647,0.0625,0.0573,0.0555,0.0503,0.05,0.048,0.0469,0.0489,0.0416,0.0437,0.0394,0.0391,0.0433,0.0435,0.041,0.041,0.041,0.041,0.041,0,0.0645,0.0665,0.0695,0.0707,0.0726,0.0724,0.0734,0.0705,0.0658,0.0614,0.0584,0.0519,0.0501,0.0454,0.0443,0.0389,0.0399,0.0377,0.037,0.0443,0.0447,0.0429,0.0432,0.0408,0.0409,0.0409,0.0409,0,0.0649,0.0674,0.07,0.0726,0.074,0.0757,0.0772,0.0759,0.0731,0.0674,0.0671,0.0544,0.0467,0.0437,0.0377,0.0365,0.0319,0.0304,0.037,0.0371,0.0312,0.0317,0.0244,0.0242,0.024,0.0239,0.0238,0,0.0642,0.0663,0.0718,0.0745,0.0767,0.0803,0.0814,0.0794,0.0757,0.0663,0.0603,0.0523,0.0448,0.0308,0.0268,0.023,0.0239,0.0244,0.0288,0.0291,0.0292,0.0299,0.0306,0.0235,0.0235,0.0234,0.0234,0,0.0614,0.0656,0.0681,0.0747,0.0787,0.0811,0.0818,0.0782,0.0737,0.0728,0.0552,0.0475,0.035,0.024,0.0228,0.0194,0.0253,0.0228,0.0232,0.0273,0.028,0.0284,0.0293,0.0229,0.0229,0.023,0.023,0,0.0597,0.0617,0.0679,0.0733,0.0781,0.0788,0.0798,0.0744,0.0703,0.06,0.0514,0.0398,0.0321,0.0214,0.0169,0.0161,0.0167,0.0212,0.0217,0.0223,0.0236,0.0243,0.0158,0,0,0,0,0,0.0573,0.0611,0.0658,0.0715,0.0764,0.0803,0.0774,0.0767,0.0715,0.0605,0.0569,0.0448,0.0329,0.0208,0.0193,0.015,0.0179,0.0134,0.0238,0.0198,0.0205,0.022,0,0,0,0,0,0,0.0558,0.061,0.0647,0.0692,0.0742,0.0782,0.0772,0.0741,0.0649,0.0591,0.0489,0.0486,0.033,0.0366,0.0209,0.0194,0.0265,0.0077,0.0077,0.0195,0.02,0.0205,0.0224,0,0,0,0,0]}]]